This is the latest recevied weather packets stored in our database for station/object IW1RID-3. If no packets are shown the sender has not sent any weather packets the latest 10 day(s).
| Time | Temp. | Humidity | Pressure | Rain* | Wind** | Luminosity | Snow |
|---|---|---|---|---|---|---|---|
| 1777936421 | 13.33° C | 92% | 1071.8 hPa | - | - | - | - |
| 1777934011 | 13.89° C | 90% | 1072.6 hPa | - | - | - | - |
| 1777932806 | 14.44° C | 85% | 1072.4 hPa | - | - | - | - |
| 1777931601 | 14.44° C | 85% | 1073.1 hPa | - | - | - | - |
| 1777930396 | 14.44° C | 82% | 1073.4 hPa | - | - | - | - |
| 1777929191 | 15° C | 75% | 1073.4 hPa | - | - | - | - |
| 1777927986 | 14.44° C | 77% | 1073.8 hPa | - | - | - | - |
| 1777926781 | 15.56° C | 73% | 1074.1 hPa | - | - | - | - |
| 1777925578 | 15.56° C | 66% | 1073.8 hPa | - | - | - | - |
| 1777924371 | 16.11° C | 67% | 1073.7 hPa | - | - | - | - |
| 1777923166 | 16.11° C | 71% | 1073.6 hPa | - | - | - | - |
| 1777921959 | 16.11° C | 74% | 1073.6 hPa | - | - | - | - |
| 1777920754 | 17.78° C | 62% | 1073.6 hPa | - | - | - | - |
| 1777919549 | 17.78° C | 49% | 1073.4 hPa | - | - | - | - |
| 1777918344 | 18.33° C | 46% | 1073 hPa | - | - | - | - |
| 1777917140 | 18.33° C | 43% | 1072.9 hPa | - | - | - | - |
| 1777915934 | 18.33° C | 51% | 1073.1 hPa | - | - | - | - |
| 1777914729 | 18.33° C | 55% | 1073 hPa | - | - | - | - |
| 1777913525 | 18.33° C | 60% | 1073.1 hPa | - | - | - | - |
| 1777912319 | 17.78° C | 61% | 1073.1 hPa | - | - | - | - |
| 1777911114 | 18.33° C | 60% | 1073.2 hPa | - | - | - | - |
| 1777909910 | 18.33° C | 61% | 1073.3 hPa | - | - | - | - |
| 1777908704 | 18.89° C | 62% | 1073.3 hPa | - | - | - | - |
| 1777907500 | 18.89° C | 62% | 1073.2 hPa | - | - | - | - |
| 1777906294 | 20° C | 61% | 1073.3 hPa | - | - | - | - |
* Rain since midnight (hover to see other rain measurements)
** Current wind speed in m/s (hover to see current wind gust speed)